Regional Weather Roundup
Issued by NWS

Current Version | Previous Version | Text Only | Print | Product List | Glossary On
Versions: 1 2 3 4 5 6 7 8 9 10 11 12 13 14 15 16 17 18 19 20 21 22 23 24 25 26 27 28 29 30 31 32 33 34 35 36 37 38 39 40 41 42 43 44 45 46 47 48 49 50
000
ASUS44 KFWD 241015
RWRTX
NORTH TEXAS HOURLY WEATHER ROUNDUP
NATIONAL WEATHER SERVICE FORT WORTH TX
500 AM CDT MON APR 24 2017

NOTE: "FAIR" INDICATES FEW OR NO CLOUDS BELOW 12,000 FEET WITH NO
SIGNIFICANT WEATHER AND/OR OBSTRUCTIONS TO VISIBILITY.

TXZ118-119-241100-
DALLAS/FORT WORTH METROPLEX

CITY           SKY/WX    TMP DP  RH WIND       PRES   REMARKS
DFW AIRPORT    CLEAR     52  44  74 SW8       29.93F
DALLAS LOVE    PTCLDY    57  44  62 CALM      29.95S
FTW MEACHAM    CLEAR     54  43  66 CALM      29.95S
DAL-EXECUTIVE  CLEAR     54  43  66 S5        29.95S
FTW-ALLIANCE   CLEAR     49  42  77 SW3       29.95S
FTW-NAS-JRB    CLEAR     49  42  77 S6        29.96S
FTW-SPINKS     CLEAR     42  39  91 CALM      29.97S
ARLINGTON      CLEAR     43  41  93 CALM      29.95F
GRAND PRAIRIE  CLEAR     52  42  68 CALM      29.97F
ADDISON        CLEAR     56  42  58 S5        29.97S
MESQUITE       CLEAR     46  45  97 CALM      29.96S
LANCASTER      CLEAR     44  40  88 CALM      29.97S
$$

TXZ091>094-102>105-117-120-121-131>134-241100-
NORTH CENTRAL TEXAS

CITY           SKY/WX    TMP DP  RH WIND       PRES   REMARKS
SHRMAN/DENISON CLEAR     52  40  64 SE8       29.95F
GAINESVILLE    CLEAR     46  42  84 CALM      29.97R
BOWIE          CLEAR     44  44  98 CALM      29.94F
BRIDGEPORT     CLEAR     54  41  63 S7        29.96S
DECATUR        CLEAR     56  39  53 S10       29.95S
DENTON         CLEAR     45  43  93 CALM      29.95S
MCKINNEY       CLEAR     45  45 100 CALM      29.95S
BONHAM         CLEAR     43  39  87 CALM      29.96S
GREENVILLE     CLEAR     46  45  93 CALM      29.97R
ROCKWALL       CLEAR     54  41  62 S5        29.96S
TERRELL        CLEAR     46  42  86 CALM      29.96S
WAXAHACHIE     CLEAR     49  44  84 CALM      29.97F
CLEBURNE       CLEAR     50  46  87 SW5       29.97F
GRANBURY       CLEAR     44  41  88 CALM      29.97F
$$

TXZ083>090-098>101-113>116-127>130-139>142-154-155-241100-
WESTERN NORTH TEXAS

CITY           SKY/WX    TMP DP  RH WIND       PRES   REMARKS
WICHITA FALLS  CLEAR     43  39  86 S7        29.92S WCI  39
WF-KICKAPOO    CLEAR     46  40  78 SE8       29.93F
VERNON         PTCLDY    49  38  64 SE3       29.91S
ABILENE        CLEAR     53  39  59 S10       29.92F
ABILENE-DYESS  CLEAR     55  39  56 SW13      29.90F
GRAHAM         CLEAR     45  43  91 CALM      29.91F
BRECKENRIDGE   CLEAR     52  39  61 S8        29.93S
CISCO          CLEAR     48  37  66 S10       29.94F
RANGER         CLEAR     49  41  74 S6        29.95F
MINERAL WELLS  CLEAR     45  41  86 CALM      29.94S
STEPHENVILLE   CLEAR     47  41  79 CALM      29.97F
COMANCHE       CLEAR     47  41  81 S8        29.95S
BROWNWOOD      PTCLDY    41  39  93 CALM      29.96S
COLEMAN        CLOUDY    47  39  73 S3        29.96S
$$

TXZ143>147-156>162-174-175-241100-
CENTRAL TEXAS

CITY           SKY/WX    TMP DP  RH WIND       PRES   REMARKS
WACO           CLEAR     47  45  93 CALM      29.96F
WACO-MCGREGOR  CLEAR     48  44  86 SW5       29.96F
HILLSBORO      CLEAR     49  44  84 SE3       29.96F
CORSICANA      CLEAR     50  47  89 SW6       29.97F
MEXIA          CLEAR     50  44  79 CALM      29.96F
HEARNE         CLEAR     45  45 100 CALM      29.98F
CAMERON        CLEAR     48  47  96 CALM      29.96F
TEMPLE         CLEAR     48  45  89 CALM      29.97F
KILLEEN        CLEAR     49  42  76 CALM      29.94F
KILLEEN-SKYLRK CLEAR     47  44  90 CALM      29.96F
FORT HOOD      CLEAR     49  44  80 SE3       29.93F
GATESVILLE     CLEAR     45  41  87 CALM      29.98F
HAMILTON       CLEAR     50  42  73 S7        29.97S
LAMPASAS       CLEAR     47  44  86 W3        29.95S
$$

TXZ095>097-106>112-122>126-135>138-148>153-164>167-241100-
EAST TEXAS

CITY           SKY/WX    TMP DP  RH WIND       PRES   REMARKS
PARIS          CLEAR     46  41  81 NE5       29.95S
SULPHUR SPRNGS CLEAR     48  44  86 CALM      29.98S
MOUNT PLEASANT CLEAR     45  45 100 CALM      29.97S
GILMER         CLEAR     45  44  97 CALM      29.97R
MINEOLA        CLEAR     45  43  93 CALM      29.96S
TYLER          CLEAR     47  46  97 CALM      29.96S
LONGVIEW       CLEAR     49  46  90 CALM      29.96R
MARSHALL       CLEAR     42  41  93 CALM      29.98S
ATHENS         CLEAR     43  43 100 CALM      29.96S
PALESTINE      CLEAR     45  45  99 CALM      29.98S
JACKSONVILLE   CLEAR     55  46  71 CALM      29.98S
HENDERSON      CLEAR     44  44 100 CALM      29.97S
CENTER         SUNNY     51  49  94 NW3       29.97S
NACOGDOCHES    CLEAR     43  39  87 CALM      29.96R
LUFKIN         CLEAR     48  46  93 CALM      29.97S
$$

SUPPLEMENTAL OBSERVATIONS (CENTRAL)

CITY           SKY/WX    TMP DP  RH WIND       PRES   REMARKS
DENISON DAM      N/A     48  43  81 SE3         N/A
CADDO GRASSLND   N/A     43  39  87 CALM        N/A
PAT MAYSE LAKE   N/A     46  45  93 CALM        N/A
GREENVILLE       N/A     45  41  87 SW2         N/A
CEDAR HILL       N/A     52  41  66 S2          N/A
ATHENS           N/A     46  43  87 CALM        N/A
LAKE LIMESTONE   N/A     46  45  93 CALM        N/A
MCGREGOR         N/A     46  43  87 SW2         N/A
TEMPLE           N/A     54  43  66 W2          N/A
$$

SUPPLEMENTAL OBSERVATIONS (WEST)

CITY           SKY/WX    TMP DP  RH WIND       PRES   REMARKS
MILLERS CREEK    N/A     54  37  54 S8G17       N/A
POSSUM KINGDOM   N/A     50  39  66 S5          N/A
LBJ GRASSLAND    N/A     50  39  66 SE6         N/A
GRANBURY         N/A     45  41  87 CALM        N/A
COMANCHE         N/A     48  39  71 S8          N/A
HAMBY            N/A     50  37  62 S7          N/A
IVIE RESERVOIR   N/A     48  36  61 SE5         N/A
COLORADO BEND    N/A     50  43  76 W5          N/A
$$

SUPPLEMENTAL OBSERVATIONS (EAST)

CITY           SKY/WX    TMP DP  RH WIND       PRES   REMARKS
CLARKSVILLE      N/A     45  39  81 NE2         N/A
CADDO LAKE       N/A     39  37  93 CALM        N/A
GILMER           N/A     45  43  93 CALM        N/A
HENDERSON        N/A     43  41  93 CALM        N/A
LUFKIN           N/A     46  45  93 MISG        N/A
N SABINE NF      N/A     45  43  93 MISG        N/A
S SABINE NF      N/A     46  45  93 S2          N/A
$$

SUPPLEMENTAL OBSERVATIONS ARE A COLLECTION OF AUTOMATED INSTRUMENTS
THAT ARE MAINTAINED BY A VARIETY OF FEDERAL AND STATE AGENCIES.
CERTAIN ELEMENTS...SUCH AS HUMIDITY VALUES AND SUSTAINED WIND
SPEEDS...MAY BE APPROXIMATED.




USA.gov is the U.S. government's official web portal to all federal, state and local government web resources and services.